Kokomo, IN

8:05 PM EDT on May 25, 2017 (GMT -0400)
Kokomo Municipal

Weather History for KOKK - May, 2013

Change the Weather History Date:

Friday, May 10, 2013

  Actual Average (KGUS) Record (KGUS)
Temperature  
Mean Temperature 56 °F -  
Max Temperature 66 °F 68 °F 87 °F (2007)
Min Temperature 46 °F 50 °F 39 °F (2008)
Degree Days  
Heating Degree Days 9    
Growing Degree Days 6 (Base 50)    
Moisture  
Dew Point 55 °F    
Average Humidity 85    
Maximum Humidity 94    
Minimum Humidity 73    
Precipitation  
Precipitation 0.00 in - - ()
Sea Level Pressure  
Sea Level Pressure 29.84 in    
Wind  
Wind Speed 12 mph (West)    
Max Wind Speed 18 mph    
Max Gust Speed 22 mph    
Visibility 10 miles    
Events      
Averages and records for this station are not official NWS values.
T = Trace of Precipitation, MM = Missing Value Source: NWS Daily Summary

Daily Weather History Graph

Daily Weather History Graph

Search for Another Location

Airport or City:

Trip Planner

Search our weather history database for the weather conditions in past years. The results will help you decide how hot, cold, wet, or windy it might be!

Date:

Astronomy

May. 10, 2013 Rise Set
Actual Time 5:32 AM CDT 7:49 PM CDT
Civil Twilight 5:01 AM CDT 8:20 PM CDT
Nautical Twilight 4:24 AM CDT 8:57 PM CDT
Astronomical Twilight 3:43 AM CDT 9:39 PM CDT
Moon 5:56 AM CDT (5/10) 8:38 PM CDT (5/10)
Length of Visible Light 15h 18m
Length of Day
14h 17m
New Moon, 0% of the Moon is Illuminated
May 10
New Moon
May 17
First Quarter
May 24
Full
May 31
Last Quarter
Jun 8
New

Hourly Weather History & Observations

Time (CDT) Temp. Windchill Dew Point Humidity Pressure Visibility Wind Dir Wind Speed Gust Speed Precip Events Conditions
12:15 AM 60.8 °F - 59.0 °F 94% 29.85 in 10.0 mi South 16.1 mph 21.9 mph N/A   Overcast
1:15 AM 60.8 °F - 59.0 °F 94% 29.85 in 10.0 mi SSW 10.4 mph - N/A   Partly Cloudy
1:35 AM 60.8 °F - 59.0 °F 94% 29.84 in 10.0 mi SW 10.4 mph - N/A   Mostly Cloudy
1:55 AM 60.8 °F - 59.0 °F 94% 29.84 in 10.0 mi SW 11.5 mph - N/A   Mostly Cloudy
2:15 AM 62.6 °F - 59.0 °F 88% 29.83 in 10.0 mi SW 12.7 mph - N/A   Overcast
2:35 AM 62.6 °F - 59.0 °F 88% 29.84 in 10.0 mi SW 11.5 mph - N/A   Overcast
2:55 AM 62.6 °F - 59.0 °F 88% 29.83 in 10.0 mi SW 13.8 mph - N/A   Overcast
3:15 AM 62.6 °F - 59.0 °F 88% 29.83 in 10.0 mi SW 12.7 mph - N/A   Overcast
3:35 AM 62.6 °F - 59.0 °F 88% 29.82 in 10.0 mi SW 9.2 mph - N/A   Overcast
3:55 AM 62.6 °F - 57.2 °F 82% 29.82 in 10.0 mi SW 10.4 mph - N/A   Scattered Clouds
4:15 AM 62.6 °F - 57.2 °F 82% 29.82 in 10.0 mi SW 6.9 mph - N/A   Mostly Cloudy
4:35 AM 60.8 °F - 57.2 °F 88% 29.81 in 10.0 mi SW 5.8 mph - N/A   Mostly Cloudy
4:55 AM 60.8 °F - 57.2 °F 88% 29.80 in 10.0 mi SW 6.9 mph - N/A   Scattered Clouds
5:15 AM 60.8 °F - 57.2 °F 88% 29.81 in 10.0 mi SSW 6.9 mph - N/A   Mostly Cloudy
5:35 AM 60.8 °F - 57.2 °F 88% 29.82 in 10.0 mi SSW 10.4 mph - N/A   Partly Cloudy
5:55 AM 60.8 °F - 57.2 °F 88% 29.81 in 10.0 mi SW 10.4 mph - N/A   Clear
6:15 AM 60.8 °F - 59.0 °F 94% 29.82 in 10.0 mi SW 11.5 mph - N/A   Clear
6:35 AM 60.8 °F - 59.0 °F 94% 29.82 in 10.0 mi SW 10.4 mph - N/A   Clear
7:15 AM 62.6 °F - 59.0 °F 88% 29.82 in 10.0 mi WSW 10.4 mph - N/A   Clear
7:35 AM 62.6 °F - 60.8 °F 94% 29.82 in 10.0 mi WSW 9.2 mph - N/A   Clear
8:15 AM 62.6 °F - 60.8 °F 94% 29.83 in 10.0 mi WSW 11.5 mph - N/A   Mostly Cloudy
8:35 AM 64.4 °F - 59.0 °F 83% 29.83 in 10.0 mi WSW 13.8 mph - N/A   Overcast
8:55 AM 64.4 °F - 59.0 °F 83% 29.84 in 10.0 mi WSW 11.5 mph - N/A   Overcast
9:15 AM 66.2 °F - 60.8 °F 83% 29.83 in 10.0 mi WSW 13.8 mph - N/A   Overcast
9:35 AM 66.2 °F - 60.8 °F 83% 29.83 in 10.0 mi West 13.8 mph - N/A   Overcast
9:55 AM 66.2 °F - 60.8 °F 83% 29.84 in 10.0 mi WSW 13.8 mph - N/A   Overcast
10:15 AM 66.2 °F - 60.8 °F 83% 29.83 in 10.0 mi WNW 13.8 mph - N/A   Overcast
10:35 AM 66.2 °F - 60.8 °F 83% 29.83 in 10.0 mi West 13.8 mph - N/A   Mostly Cloudy
10:55 AM 66.2 °F - 60.8 °F 83% 29.84 in 10.0 mi WNW 13.8 mph - N/A   Mostly Cloudy
11:15 AM 66.2 °F - 60.8 °F 83% 29.84 in 10.0 mi West 11.5 mph - N/A   Mostly Cloudy
11:35 AM 66.2 °F - 59.0 °F 78% 29.84 in 10.0 mi West 9.2 mph - N/A   Mostly Cloudy
12:15 PM 64.4 °F - 59.0 °F 83% 29.84 in 8.0 mi West 9.2 mph - N/A   Mostly Cloudy
12:35 PM 64.4 °F - 60.8 °F 88% 29.84 in 7.0 mi West 11.5 mph - N/A   Overcast
12:55 PM 64.4 °F - 60.8 °F 88% 29.84 in 10.0 mi West 10.4 mph - N/A   Mostly Cloudy
1:15 PM 64.4 °F - 60.8 °F 88% 29.84 in 10.0 mi West 10.4 mph - N/A   Mostly Cloudy
1:35 PM 64.4 °F - 60.8 °F 88% 29.84 in 10.0 mi WSW 10.4 mph - N/A   Overcast
1:55 PM 66.2 °F - 60.8 °F 83% 29.83 in 10.0 mi WSW 10.4 mph - N/A   Overcast
2:15 PM 64.4 °F - 59.0 °F 83% 29.82 in 5.0 mi NW 10.4 mph - N/A   Mostly Cloudy
2:35 PM 64.4 °F - 59.0 °F 83% 29.82 in 5.0 mi NW 13.8 mph - N/A   Overcast
2:55 PM 64.4 °F - 59.0 °F 83% 29.80 in 8.0 mi NNW 12.7 mph - N/A   Overcast
3:15 PM 66.2 °F - 59.0 °F 78% 29.81 in 8.0 mi WNW 15.0 mph - N/A   Overcast
3:35 PM 64.4 °F - 57.2 °F 77% 29.80 in 8.0 mi NNW 12.7 mph 18.4 mph N/A   Overcast
3:55 PM 64.4 °F - 57.2 °F 77% 29.81 in 8.0 mi WNW 10.4 mph 17.3 mph N/A   Overcast
4:15 PM 64.4 °F - 55.4 °F 73% 29.81 in 10.0 mi NW 10.4 mph - N/A   Overcast
4:35 PM 64.4 °F - 55.4 °F 73% 29.81 in 9.0 mi NW 15.0 mph 18.4 mph N/A   Overcast
4:55 PM 62.6 °F - 55.4 °F 77% 29.81 in 10.0 mi NW 17.3 mph 21.9 mph N/A   Overcast
5:15 PM 60.8 °F - 53.6 °F 77% 29.82 in 10.0 mi NW 18.4 mph - N/A   Overcast
5:35 PM 57.2 °F - 51.8 °F 82% 29.82 in 10.0 mi NW 17.3 mph 21.9 mph N/A   Mostly Cloudy
5:55 PM 57.2 °F - 51.8 °F 82% 29.83 in 10.0 mi NW 15.0 mph - N/A   Mostly Cloudy
6:15 PM 55.4 °F - 48.2 °F 77% 29.84 in 10.0 mi NW 17.3 mph 20.7 mph N/A   Mostly Cloudy
6:35 PM 53.6 °F - 46.4 °F 77% 29.85 in 10.0 mi NW 15.0 mph - N/A   Overcast
6:55 PM 51.8 °F - 46.4 °F 82% 29.86 in 10.0 mi NW 11.5 mph - N/A   Overcast
7:15 PM 51.8 °F - 46.4 °F 82% 29.87 in 10.0 mi NW 12.7 mph 19.6 mph N/A   Overcast
7:35 PM 50.0 °F - 44.6 °F 82% 29.88 in 10.0 mi NW 13.8 mph - N/A   Overcast
7:55 PM 48.2 °F - 44.6 °F 87% 29.88 in 10.0 mi NW 15.0 mph - N/A   Overcast
8:15 PM 48.2 °F - 44.6 °F 87% 29.89 in 10.0 mi NW 15.0 mph 18.4 mph N/A   Overcast
8:35 PM 48.2 °F - 44.6 °F 87% 29.89 in 10.0 mi NW 9.2 mph - N/A   Overcast
8:55 PM 48.2 °F - 44.6 °F 87% 29.90 in 10.0 mi NNW 12.7 mph 17.3 mph N/A   Overcast
9:15 PM 48.2 °F - 44.6 °F 87% 29.90 in 10.0 mi NNW 11.5 mph - N/A   Overcast
9:35 PM 48.2 °F - 44.6 °F 87% 29.90 in 10.0 mi NNW 13.8 mph 18.4 mph N/A   Overcast
9:55 PM 48.2 °F - 44.6 °F 87% 29.91 in 10.0 mi NNW 12.7 mph - N/A   Overcast
10:15 PM 48.2 °F - 44.6 °F 87% 29.91 in 10.0 mi NW 11.5 mph - N/A   Overcast
10:35 PM 46.4 °F 41.1 °F 42.8 °F 87% 29.91 in 10.0 mi NW 11.5 mph - N/A   Overcast
10:55 PM 46.4 °F 40.7 °F 42.8 °F 87% 29.90 in 10.0 mi NW 12.7 mph - N/A   Overcast
11:15 PM 46.4 °F 40.7 °F 44.6 °F 93% 29.90 in 10.0 mi NW 12.7 mph - N/A   Overcast
11:35 PM 46.4 °F 40.7 °F 42.8 °F 87% 29.91 in 10.0 mi NW 12.7 mph - N/A   Overcast
11:55 PM 46.4 °F 41.9 °F 42.8 °F 87% 29.92 in 7.0 mi NW 9.2 mph - N/A   Overcast